Simultaneous Nadir Overpasses (SNOs) Predictions

Prediction of SNOs between LANDSAT-8 and NOAA-19 Satellite Orbit:

Table of predicted SNOs for the next 14.0 days since TLE Epoch: 4/10/2021
Index Date (LANDSAT-8) Time (LANDSAT-8) Lat,Lon (LANDSAT-8) SZA (LANDSAT-8 ) Date (NOAA-19) Time (NOAA-19) Lat,Lon (NOAA-19) SZA (NOAA-19 ) Distance(km) Time Diff (sec)
1 04/12/2021 08:02:31 80.30, 89.25 72.76 04/12/2021 08:02:39 80.32, 89.27 72.79 2.52 8
2 04/14/2021 13:36:14 -80.32,-173.99 108.00 04/14/2021 13:35:54 -80.32,-173.87 108.00 2.34 20
3 04/14/2021 14:25:40 80.32, -6.35 71.99 04/14/2021 14:26:50 80.31, -6.42 72.00 2.01 70
4 04/16/2021 19:09:56 80.34, -77.26 71.25 04/16/2021 19:09:03 80.34, -77.43 71.22 3.09 53
5 04/16/2021 19:59:24 -80.31, 90.11 108.81 04/16/2021 20:00:05 -80.31, 90.29 108.78 3.49 41
6 04/19/2021 01:33:06 80.32,-173.20 70.45 04/19/2021 01:33:14 80.33,-173.15 70.46 1.02 8
7 04/21/2021 07:06:49 -80.35, -76.44 110.27 04/21/2021 07:06:28 -80.33, -76.43 110.29 1.76 21
8 04/21/2021 07:56:16 80.31, 90.84 69.66 04/21/2021 07:57:26 80.33, 90.78 69.70 3.00 70
9 04/23/2021 12:40:31 80.35, 20.19 69.01 04/23/2021 12:39:38 80.35, 20.06 68.98 2.42 53



Historial Predications of SNOs between LANDSAT-8 and NOAA-19
